DW3809 Weather Reports


time (UTC)temp
C
wind
direction
speed
KPH
gust
KPH
rain 1hr
cm
rain 24hr
cm
rain mn
cm
humidity
%
barometer
mb
20260505183050 2 261 0.0 3.2 0.03 0.20 0.18 90 1004.3
20260505181544 2 265 0.0 1.6 0.03 0.18 0.15 89 1004.5
20260505180043 2 225 0.0 1.6 0.03 0.18 0.15 89 1004.4
20260505174543 2 238 0.0 1.6 0.03 0.18 0.15 90 1004.3
20260505173044 2 229 0.0 1.6 0.03 0.18 0.15 89 1004.4
20260505171543 2 250 0.0 3.2 0.00 0.15 0.13 89 1004.3
20260505170040 2 244 0.0 4.8 0.00 0.15 0.13 89 1004.2
20260505164540 2 211 0.0 4.8 0.03 0.15 0.13 89 1004.1
20260505163037 2 247 0.0 3.2 0.03 0.15 0.13 90 1004.0
20260505161536 2 250 0.0 3.2 0.03 0.15 0.13 89 1004.1
20260505153033 2 235 1.6 3.2 0.00 0.13 0.10 88 1004.0
20260505151532 2 223 0.0 1.6 0.00 0.13 0.10 89 1003.9
20260505124508 5 165 0.0 1.6 0.00 0.13 0.10 82 1001.8
20260505123008 5 202 0.0 1.6 0.00 0.13 0.10 81 1001.6
20260505121510 5 204 0.0 3.2 0.00 0.13 0.10 80 1001.1
20260505120006 5 195 0.0 1.6 0.00 0.13 0.10 81 1001.0
20260505114606 5 163 0.0 3.2 0.00 0.13 0.10 82 1001.1
20260505113008 5 197 0.0 3.2 0.00 0.13 0.10 82 1000.9
20260505111509 5 209 0.0 1.6 0.03 0.13 0.10 84 1000.7
20260505101600 5 213 0.0 3.2 0.05 0.10 0.08 90 1000.5
20260505100104 5 167 0.0 0.0 0.03 0.08 0.05 90 1000.5
20260505094607 6 167 0.0 0.0 0.00 0.05 0.03 89 1000.5
20260505093056 6 167 0.0 0.0 0.00 0.05 0.03 87 1000.4
20260505091553 6 167 0.0 0.0 0.00 0.05 0.03 88 1000.4
20260505090106 6 200 0.0 1.6 0.00 0.05 0.03 88 1000.5
20260505084549 6 196 0.0 0.0 0.00 0.05 0.03 86 1000.8
20260505083047 6 196 0.0 0.0 0.00 0.05 0.03 87 1001.2
20260505081549 6 252 0.0 1.6 0.00 0.05 0.03 87 1001.4
20260505080052 6 232 0.0 3.2 0.00 0.05 0.03 87 1001.4
20260505074543 6 241 0.0 1.6 0.00 0.05 0.03 87 1001.7
20260505073053 6 221 0.0 1.6 0.00 0.05 0.03 87 1001.9
20260505071540 6 240 0.0 3.2 0.00 0.05 0.03 86 1002.0
20260505070049 6 225 0.0 1.6 0.03 0.05 0.03 86 1002.1
20260505064538 6 243 0.0 1.6 0.03 0.05 0.03 86 1002.2
20260505063037 6 243 0.0 0.0 0.03 0.05 0.03 85 1002.1
20260505061535 7 237 0.0 1.6 0.05 0.05 0.03 84 1002.0
20260505060035 7 155 0.0 1.6 0.03 0.03 0.00 84 1002.3
20260505054534 7 235 0.0 0.0 0.03 0.03 0.03 83 1002.5
20260505053032 7 235 0.0 3.2 0.03 0.03 0.03 80 1002.4
20260505051536 7 229 0.0 1.6 0.00 0.00 0.00 80 1002.3
20260505041547 7 225 0.0 4.8 0.00 0.00 0.00 81 1001.3
20260505040030 7 248 3.2 6.4 0.00 0.00 0.00 80 1001.2
20260505034528 7 246 0.0 6.4 0.00 0.00 0.00 78 1000.9
20260505033028 8 255 1.6 8.0 0.00 0.00 0.00 76 1001.2
20260505031530 8 342 4.8 8.0 0.00 0.00 0.00 77 1001.0
20260505030034 8 248 1.6 4.8 0.00 0.00 0.00 77 1000.6
20260505024527 8 237 0.0 4.8 0.00 0.00 0.00 75 1001.0
20260505023033 8 228 0.0 3.2 0.00 0.00 0.00 76 1000.7
20260505021528 8 240 0.0 3.2 0.00 0.00 0.00 75 1000.8
20260505020026 8 189 0.0 3.2 0.00 0.00 0.00 73 1000.8
20260505014523 9 101 4.8 11.3 0.00 0.00 0.00 71 1000.5
20260505013023 11 237 0.0 12.9 0.00 0.00 0.00 57 1000.4
20260505011528 12 262 4.8 9.7 0.00 0.00 0.00 48 1000.1
20260505010019 12 252 6.4 14.5 0.00 0.00 0.00 47 999.6
20260505004531 12 263 8.0 12.9 0.00 0.00 0.00 45 999.1
20260505003017 13 244 4.8 14.5 0.00 0.00 0.00 41 998.7
20260505001516 14 259 6.4 17.7 0.00 0.00 0.00 39 998.0
20260505000027 15 240 1.6 9.7 0.00 0.00 0.00 36 997.5
20260504234515 16 225 4.8 12.9 0.00 0.00 0.00 35 997.5
20260504233014 16 136 6.4 17.7 0.00 0.00 0.00 36 997.6
20260504231514 16 96 4.8 11.3 0.00 0.00 0.00 36 997.7
20260504230018 16 121 3.2 9.7 0.00 0.00 0.00 35 997.7
20260504224513 16 218 1.6 8.0 0.00 0.00 0.00 35 997.6
20260504223013 17 150 1.6 8.0 0.00 0.00 0.00 30 997.5
20260504221518 17 157 1.6 17.7 0.00 0.00 0.00 30 997.3
20260504220012 17 105 1.6 14.5 0.00 0.00 0.00 30 997.1
20260504214513 17 159 0.0 3.2 0.00 0.00 0.00 28 997.0
20260504213033 16 164 1.6 14.5 0.00 0.00 0.00 31 997.3
20260504211516 17 274 3.2 12.9 0.00 0.00 0.00 28 996.9
20260504210012 18 171 6.4 19.3 0.00 0.00 0.00 26 996.8
20260504204509 20 256 8.0 29.0 0.00 0.00 0.00 24 996.8
20260504203010 20 275 3.2 11.3 0.00 0.00 0.00 24 996.9
20260504201512 18 221 1.6 14.5 0.00 0.00 0.00 24 997.2
20260504200005 18 275 6.4 20.9 0.00 0.00 0.00 25 997.5
20260504194505 18 287 6.4 14.5 0.00 0.00 0.00 25 997.7
20260504193005 19 296 9.7 17.7 0.00 0.00 0.00 21 997.6
20260504191503 20 136 1.6 12.9 0.00 0.00 0.00 21 997.5
20260504190002 21 208 0.0 6.4 0.00 0.00 0.00 17 997.6
20260504184608 21 259 1.6 9.7 0.00 0.00 0.00 21 997.9